Flag for Italy Weather past 2 weeks in Bolzano, Italy

Now
59 °F

Sunny.


Feels Like: 57 °F
Forecast: 31 / 62 °F
Wind: 12 mph from North

Location: Bolzano


UV Index: 5 (Moderate)

Visibility: 10 mi


Pressure: 30.15 "Hg

Humidity: 21%

Dew point: 19 °F

Location of BolzanoLocation

Historic Weather in Bolzano

°F

Bolzano temperature yesterday

Maximum temperature yesterday: 63 °F (at 2:50 PM)
Minimum temperature yesterday: 50 °F (at 10:50 PM)
Average temperature yesterday: 58 °F

Past Weeks' High & Low Weather Summary

 TemperatureHumidityPressure
High84 °F (Apr 9, 7:50 PM)100% (Apr 8, 9:50 PM)30.21 "Hg (Apr 8, 9:50 PM)
Low41 °F (Apr 10, 6:50 AM)10% (Apr 9, 7:50 PM)29.65 "Hg (Apr 4, 3:50 PM)
Average62 °F54%29.96 "Hg
* Reported Apr 1 5:50 PM — Apr 16 5:50 PM, Bolzano, Weather by CustomWeather, © 2014

Note: Actual official high and low records may vary slightly from our data, if they occured in-between our weather recording intervals... More about our weather records

Advertising

Historic Weather Conditions — Data for Previous 24 hours

 ConditionsComfort  
Time TempWeatherWind HumidityBarometerVisibility
5:50 PM
Apr 16
61 °FSunny.14 mph22%30.15 "Hg10 mi
4:50 PM63 °FSunny.16 mph19%30.12 "Hg10 mi
3:50 PM63 °FSunny.13 mph20%30.12 "Hg10 mi
2:50 PM63 °FPassing clouds.12 mph22%30.12 "HgN/A
1:50 PM61 °FPassing clouds.8 mph22%30.15 "HgN/A
12:50 PM61 °FPassing clouds.8 mph25%30.18 "HgN/A
11:50 AM57 °FPassing clouds.8 mph21%30.18 "HgN/A
10:50 AM55 °FSunny.7 mph31%30.21 "Hg10 mi
9:50 AM54 °FSunny.2 mph35%30.21 "Hg10 mi
8:50 AM43 °FSunny.2 mph53%30.21 "Hg10 mi
7:50 AM43 °FSunny.6 mph46%30.21 "Hg10 mi
6:50 AM46 °FClear.5 mph32%30.18 "Hg10 mi
5:50 AM46 °FClear.5 mph32%30.18 "Hg10 mi
10:50 PM
Apr 15
50 °FClear.9 mph32%30.12 "Hg10 mi
9:50 PM54 °FPassing clouds.7 mph24%30.12 "HgN/A
8:50 PM55 °FPassing clouds.10 mph24%30.09 "HgN/A
7:50 PM57 °FSunny.10 mph23%30.07 "Hg10 mi
Weather by CustomWeather, © 2014

See weather overview